Overview Statistics Trail Chart Weather Telemetry Raw packets
 

This is the latest recevied weather packets stored in our database for station/object SQ6ILB-11. If no packets are shown the sender has not sent any weather packets the latest 10 day(s).

<< 28 29 30 31 32 33 34 >>
Time Temp. Humidity Pressure Rain* Wind** Luminosity Snow
1787938890 25° C 62% 983.6 hPa - - - -
1787937990 25.56° C 60% 983.4 hPa - - - -
1787937090 25.56° C 60% 983.4 hPa - - - -
1787936190 25.56° C 58% 983.7 hPa - - - -
1787935290 25.56° C 58% 984.1 hPa - - - -
1787934390 26.11° C 56% 984.4 hPa - - - -
1787933490 26.11° C 56% 984.4 hPa - - - -
1787932589 26.11° C 55% 984.3 hPa - - - -
1787931689 26.11° C 53% 984.3 hPa - - - -
1787930789 26.11° C 53% 984.2 hPa - - - -
1787929889 26.67° C 55% 984.4 hPa - - - -
1787928989 26.67° C 57% 984.6 hPa - - - -
1787928089 26.67° C 56% 984.6 hPa - - - -
1787927189 26.67° C 55% 984.8 hPa - - - -
1787926288 26.67° C 56% 984.6 hPa - - - -
1787925388 26.67° C 55% 985.1 hPa - - - -
1787924494 26.67° C 56% 984.3 hPa - - - -
1787923588 27.22° C 55% 983.9 hPa - - - -
1787922688 27.78° C 58% 983.6 hPa - - - -
1787921788 27.78° C 60% 983.3 hPa - - - -
1787920887 27.22° C 61% 983.2 hPa - - - -
1787919987 26.67° C 60% 983.1 hPa - - - -
1787919087 26.67° C 56% 983.3 hPa - - - -
1787918187 26.11° C 61% 983.2 hPa - - - -
1787917287 26.11° C 61% 983.7 hPa - - - -

* Rain since midnight (hover to see other rain measurements)
** Current wind speed in m/s (hover to see current wind gust speed)